Date String (YYYY-MM-DD hh:mm:ss) UTC,Instrument flags,absolute air pressure of the measurement (hPa),sample flow rate (lpm),inlet stack bypass flow (lpm),air temperature of the measurement (°C),ambient temperature measured by the external sensor (°C),aerosol sample conditioner tube jacket temperature (°C),OPC LED temperature (°C),internal box temperature (°C),relative humidity of the measurement (%),span deviation,mass concentration of particles derived from Lorenz-Mie calculation of OPC scattering (μg/m³),mass concentration of particles derived from Lorenz-Mie calculation of OPC scattering (μg/m³),mass concentration of particles derived from Lorenz-Mie calculation of OPC scattering (μg/m³)
DateTimeUTC,F1_M11,P_M11,Q1_M11,Q2_M11,T1_M11,T2_M11,T3_M11,T4_M11,T5_M11,U1_M11,ZSPAN_M11,X0_M11,X2_M11,X1_M11
2024-02-24 15:00:00,SystemResetWarning,0828.0,5.00,000.00,018.4,017.7,000.0,026.8,020.0,11.3,0000.0,0008.23,0002.59,0001.10
2024-02-24 15:01:00,SystemResetWarning,0828.2,4.99,000.00,018.4,017.7,000.0,026.8,020.0,12.0,0000.0,0008.29,0002.57,0001.13
2024-02-24 15:02:00,SystemResetWarning,0828.1,4.99,000.00,018.4,017.6,000.0,026.8,020.0,12.6,0000.0,0008.23,0002.50,0001.16
2024-02-24 15:03:00,SystemResetWarning,0828.1,5.00,000.00,018.4,017.6,000.0,026.8,020.0,12.0,0000.0,0007.79,0002.39,0001.22
2024-02-24 15:04:00,SystemResetWarning,0828.1,5.00,000.00,018.3,017.6,000.0,026.8,020.0,10.4,0000.0,0007.83,0002.47,0001.25
2024-02-24 15:05:00,SystemResetWarning,0828.2,5.00,000.00,018.4,017.6,000.0,026.8,020.0,10.9,0000.0,0008.06,0002.51,0001.28
2024-02-24 15:06:00,SystemResetWarning,0828.1,5.00,000.00,018.4,017.6,000.0,026.8,020.0,10.6,0000.0,0008.13,0002.53,0001.29
2024-02-24 15:07:00,SystemResetWarning,0828.0,5.01,000.00,018.4,017.6,000.0,026.9,020.0,09.9,0000.0,0008.30,0002.55,0001.34
2024-02-24 15:08:00,SystemResetWarning,0828.1,5.01,000.00,018.4,017.7,000.0,026.8,020.0,08.9,0000.0,0008.24,0002.66,0001.41
2024-02-24 15:09:00,SystemResetWarning,0828.2,5.01,000.00,018.4,017.7,000.0,026.8,020.0,10.3,0000.0,0008.28,0002.74,0001.45
2024-02-24 15:10:00,SystemResetWarning,0828.2,5.00,000.00,018.4,017.7,000.0,026.8,020.0,11.4,0000.0,0008.18,0002.85,0001.49
2024-02-24 15:11:00,SystemResetWarning,0828.3,4.98,000.00,018.4,017.7,000.0,026.8,020.0,10.8,0000.0,0008.18,0002.90,0001.54
2024-02-24 15:12:00,SystemResetWarning,0828.1,4.99,000.00,018.4,017.7,000.0,026.8,020.0,09.3,0000.0,0008.01,0002.96,0001.62
2024-02-24 15:13:00,SystemResetWarning,0828.2,5.02,000.00,018.4,017.8,000.0,026.8,020.0,08.1,0000.0,0007.38,0002.97,0001.66
2024-02-24 15:14:00,SystemResetWarning,0828.3,5.00,000.00,018.4,017.8,000.0,026.8,020.0,08.5,0000.0,0007.73,0002.91,0001.65
2024-02-24 15:15:00,SystemResetWarning,0828.2,4.99,000.00,018.4,017.8,000.0,026.8,020.0,10.0,0000.0,0008.02,0002.81,0001.64
2024-02-24 15:16:00,SystemResetWarning,0828.2,5.00,000.00,018.4,017.8,000.0,026.8,020.0,10.8,0000.0,0008.38,0002.82,0001.66
2024-02-24 15:17:00,SystemResetWarning,0828.2,5.02,000.00,018.4,017.8,000.0,026.8,020.0,11.2,0000.0,0008.34,0002.77,0001.66
2024-02-24 15:18:00,SystemResetWarning,0828.1,4.99,000.00,018.4,017.8,000.0,026.8,020.1,11.2,0000.0,0008.14,0002.79,0001.62
2024-02-24 15:19:00,SystemResetWarning,0828.1,4.99,000.00,018.4,017.8,000.0,026.8,020.0,11.4,0000.0,0008.08,0002.77,0001.57
2024-02-24 15:20:00,SystemResetWarning,0828.2,5.00,000.00,018.4,017.8,000.0,026.8,020.0,11.6,0000.0,0008.05,0002.72,0001.53
2024-02-24 15:21:00,SystemResetWarning,0828.2,5.01,000.00,018.4,017.8,000.0,026.8,020.0,11.4,0000.0,0007.66,0002.65,0001.52
2024-02-24 15:22:00,SystemResetWarning,0828.0,5.01,000.00,018.4,017.8,000.0,026.8,020.0,10.8,0000.0,0007.59,0002.61,0001.48
2024-02-24 15:23:00,SystemResetWarning,0828.0,5.00,000.00,018.4,017.9,000.0,026.8,020.0,09.2,0000.0,0007.63,0002.53,0001.41
2024-02-24 15:24:00,SystemResetWarning,0828.1,5.00,000.00,018.5,017.9,000.0,026.8,020.0,08.5,0000.0,0007.71,0002.50,0001.33
2024-02-24 15:25:00,SystemResetWarning,0828.1,5.01,000.00,018.5,017.9,000.0,026.8,020.1,09.8,0000.0,0008.65,0002.65,0001.31
2024-02-24 15:26:00,SystemResetWarning,0828.1,5.00,000.00,018.5,017.9,000.0,026.8,020.1,08.8,0000.0,0008.31,0002.71,0001.32
2024-02-24 15:27:00,SystemResetWarning,0827.9,5.00,000.00,018.5,017.9,000.0,026.8,020.1,09.1,0000.0,0007.93,0002.75,0001.32
2024-02-24 15:28:00,SystemResetWarning,0827.9,5.00,000.00,018.5,017.9,000.0,026.8,020.1,09.1,0000.0,0007.86,0002.75,0001.34
2024-02-24 15:29:00,SystemResetWarning,0827.9,4.99,000.00,018.5,018.0,000.0,026.8,020.1,08.4,0000.0,0007.79,0002.72,0001.36
2024-02-24 15:30:00,SystemResetWarning,0827.8,4.99,000.00,018.5,018.0,000.0,026.8,020.1,08.9,0000.0,0007.73,0002.70,0001.39
2024-02-24 15:31:00,SystemResetWarning,0827.9,5.01,000.00,018.5,018.0,000.0,026.8,020.1,10.8,0000.0,0007.80,0002.76,0001.41
2024-02-24 15:32:00,SystemResetWarning,0827.9,5.01,000.00,018.5,018.0,000.0,026.8,020.1,11.2,0000.0,0007.85,0002.76,0001.41
2024-02-24 15:33:00,SystemResetWarning,0827.8,5.00,000.00,018.5,018.0,000.0,026.8,020.1,11.1,0000.0,0007.85,0002.76,0001.40
2024-02-24 15:34:00,SystemResetWarning,0827.9,4.98,000.00,018.5,018.0,000.0,026.8,020.1,11.2,0000.0,0007.84,0002.79,0001.41
2024-02-24 15:35:00,SystemResetWarning,0828.0,5.01,000.00,018.5,018.0,000.0,026.8,020.1,11.4,0000.0,0007.90,0002.80,0001.42
2024-02-24 15:36:00,SystemResetWarning,0827.9,5.01,000.00,018.5,018.0,000.0,026.8,020.1,11.4,0000.0,0006.65,0002.75,0001.42
2024-02-24 15:37:00,SystemResetWarning,0827.8,5.00,000.00,018.5,018.0,000.0,026.8,020.1,11.5,0000.0,0006.67,0002.75,0001.42
2024-02-24 15:38:00,SystemResetWarning,0827.8,5.00,000.00,018.5,018.0,000.0,026.8,020.1,11.4,0000.0,0006.68,0002.70,0001.40
2024-02-24 15:39:00,SystemResetWarning,0827.9,5.00,000.00,018.5,018.0,000.0,026.8,020.1,11.4,0000.0,0007.08,0002.68,0001.36
2024-02-24 15:40:00,SystemResetWarning,0827.9,5.00,000.00,018.5,018.0,000.0,026.8,020.1,11.2,0000.0,0007.50,0002.73,0001.32
2024-02-24 15:41:00,SystemResetWarning,0827.9,5.00,000.00,018.5,018.0,000.0,026.8,020.2,11.8,0000.0,0007.46,0002.73,0001.30
2024-02-24 15:42:00,SystemResetWarning,0827.8,5.00,000.00,018.6,018.0,000.0,026.8,020.1,12.0,0000.0,0007.23,0002.64,0001.26
2024-02-24 15:43:00,SystemResetWarning,0827.8,4.99,000.00,018.6,017.9,000.0,026.8,020.2,12.0,0000.0,0007.82,0002.64,0001.25
2024-02-24 15:44:00,SystemResetWarning,0827.8,5.00,000.00,018.6,017.9,000.0,026.8,020.2,11.7,0000.0,0008.12,0002.64,0001.25
2024-02-24 15:45:00,SystemResetWarning,0827.8,5.00,000.00,018.5,017.9,000.0,026.8,020.1,11.9,0000.0,0008.13,0002.61,0001.25
2024-02-24 15:46:00,SystemResetWarning,0828.0,5.00,000.00,018.5,017.9,000.0,026.8,020.1,12.0,0000.0,0008.14,0002.60,0001.26
2024-02-24 15:47:00,SystemResetWarning,0827.8,5.00,000.00,018.6,017.9,000.0,026.8,020.1,11.9,0000.0,0008.32,0002.54,0001.26
2024-02-24 15:48:00,SystemResetWarning,0827.8,4.99,000.00,018.6,018.0,000.0,026.8,020.2,11.9,0000.0,0008.17,0002.47,0001.26
2024-02-24 15:49:00,SystemResetWarning,0827.8,5.01,000.00,018.6,018.0,000.0,026.8,020.2,11.9,0000.0,0007.97,0002.42,0001.28
2024-02-24 15:50:00,SystemResetWarning,0827.8,5.01,000.00,018.6,018.0,000.0,026.8,020.2,11.3,0000.0,0007.48,0002.32,0001.29
2024-02-24 15:51:00,SystemResetWarning,0827.7,4.99,000.00,018.6,018.0,000.0,026.8,020.2,11.1,0000.0,0007.86,0002.28,0001.31
2024-02-24 15:52:00,SystemResetWarning,0827.7,5.00,000.00,018.6,018.0,000.0,026.8,020.2,10.8,0000.0,0007.93,0002.26,0001.33
2024-02-24 15:53:00,SystemResetWarning,0827.6,5.00,000.00,018.6,018.0,000.0,026.8,020.2,10.8,0000.0,0008.03,0002.28,0001.34
2024-02-24 15:54:00,SystemResetWarning,0827.7,5.00,000.00,018.6,018.0,000.0,026.9,020.2,11.2,0000.0,0007.42,0002.22,0001.34
2024-02-24 15:55:00,SystemResetWarning,0827.7,5.00,000.00,018.6,018.0,000.0,026.9,020.2,11.5,0000.0,0006.82,0002.18,0001.34
2024-02-24 15:56:00,SystemResetWarning,0827.7,5.00,000.00,018.6,018.0,000.0,026.9,020.2,11.6,0000.0,0006.66,0002.15,0001.35
2024-02-24 15:57:00,SystemResetWarning,0827.7,5.00,000.00,018.6,018.0,000.0,026.9,020.2,11.7,0000.0,0006.46,0002.11,0001.36
2024-02-24 15:58:00,SystemResetWarning,0827.7,4.99,000.00,018.6,018.0,000.0,026.9,020.2,10.9,0000.0,0006.00,0002.11,0001.37
2024-02-24 15:59:00,SystemResetWarning,0827.5,5.00,000.00,018.6,018.0,000.0,026.9,020.2,11.0,0000.0,0008.64,0002.15,0001.38
